Terminal Aerodrome Forecast
Issued by NWS

Home | Current Version | Previous Version | Text Only | Print | Product List | Glossary On
Versions: 1 2 3 4 5 6 7 8 9 10 11 12 13 14 15 16 17 18 19 20 21 22 23 24 25 26
058
FTUS45 KFGZ 220520
TAFSEZ
TAF
KSEZ 220520Z 2206/2306 03005KT P6SM SCT030 SCT100 SCT250
     FM221400 VRB06KT P6SM BKN030 OVC060
     FM221800 17007KT 6SM -SHRA BKN015 OVC030
     FM230000 17010G20KT 4SM -SHRA OVC015=

USA.gov is the U.S. government's official web portal to all federal, state and local government web resources and services.